Regional Weather Roundup
Issued by NWS

Home | Current Version | Previous Version | Text Only | Print | Product List | Glossary Off
Versions: 1 2 3 4 5 6 7 8 9 10 11 12 13 14 15 16 17 18 19 20 21 22 23 24 25 26 27 28 29 30 31 32 33 34 35 36 37 38 39 40 41 42 43 44 45 46 47 48 49 50

000
ASUS43 KLOT 201610
RWRIL

ILLINOIS REGIONAL WEATHER ROUNDUP
NATIONAL WEATHER SERVICE CHICAGO/ROMEOVILLE IL
1000 AM CST SAT DEC 20 2014

NOTE: "FAIR" INDICATES FEW OR NO CLOUDS BELOW 12,000 FEET WITH NO
SIGNIFICANT WEATHER AND/OR OBSTRUCTIONS TO VISIBILITY.

* THESE STATIONS ARE NOT UNDER NWS QUALITY CONTROL. THEY ALSO MAY NOT
  REPORT WEATHER SUCH AS PRECIPITATION OR FOG.

ILZ001-002-007-009-015-016-024-201700-
NORTHWEST ILLINOIS

CITY           SKY/WX    TMP DP  RH WIND       PRES   REMARKS
MOLINE         CLOUDY    32  25  75 SE6       30.26R HAZE    WCI  26
STERLING*      CLOUDY    30  25  80 SE3       30.27S
SAVANNA*       CLOUDY    31  26  84 SE3       30.27R HAZE
$$

ILZ003-004-008-010-011-017-018-201700-
NORTH CENTRAL ILLINOIS

CITY           SKY/WX    TMP DP  RH WIND       PRES   REMARKS
ROCKFORD       CLOUDY    28  24  85 SE5       30.29R FOG     WCI  23
FREEPORT*      CLOUDY    28  25  87 SE5       30.28S FOG     WCI  23
ROCHELLE*      CLOUDY    28  26  91 CALM      30.28R FOG
DE KALB*       CLOUDY    27  24  89 CALM      30.27S FOG
PERU*          CLOUDY    30  26  83 SE5       30.29R WCI  25
$$

ILZ005-006-012>014-019>023-201700-
NORTHEAST ILLINOIS

CITY           SKY/WX    TMP DP  RH WIND       PRES   REMARKS
CHICAGO-OHARE  CLOUDY    31  23  72 S6        30.28R WCI  25
CHICAGO-MIDWAY CLOUDY    33  26  75 S7        30.29S WCI  27
AURORA         CLOUDY    29  23  78 SE3       30.29R HAZE
LANSING*       CLOUDY    31  26  84 SW3       30.30R
JOLIET*        CLOUDY    31  26  82 CALM      30.30R HAZE
WAUKEGAN       CLOUDY    28  22  78 CALM      30.27S
DUPAGE AIRPORT CLOUDY    29  24  82 S3        30.28R
KANKAKEE*      CLOUDY    31  27  84 S5        30.31S WCI  27
WHEELING       CLOUDY    30  24  78 CALM      30.30R
MORRIS*        CLOUDY    30  27  89 S3        30.29R
ROMEOVILLE*    CLOUDY    31  27  85 SW5       30.29S FOG     WCI  26
NORTHERLY ISL    N/A     32  25  76 SW5         N/A  WCI  27
$$

LMZ740>746-201700-
SOUTHERN LAKE MICHIGAN

STATION/POSITION SKY/WX   TEMP    WIND        PRES    VSBY  WAVE
                          AIR SEA DIR/SP/G                  HT/PER
                          (F)     (DEG/KT/KT) (MB)    (MI)  (FT/S)
WAUKEGAN HARBOR            30        CALM       N/A
HARRISON CRIB              31     200/  8/ 10   N/A
BURNHAM HARBOR             32     190/  4/  6   N/A
CALUMET HARBOR             31     200/  4/  5 1024.5S
$$

ILZ025>027-034>036-040-047-049-050-058-095>099-201700-
WEST-CENTRAL ILLINOIS

CITY           SKY/WX    TMP DP  RH WIND       PRES   REMARKS
QUINCY         CLOUDY    35  30  82 S9        30.25R HAZE    WCI  28
GALESBURG*     CLOUDY    31  27  84 SE5       30.26R WCI  26
MACOMB*        CLOUDY    32  29  89 SE7       30.28S FOG     WCI  26
JACKSONVILLE*  CLOUDY    37  30  76 SE6       30.27S WCI  32
PITTSFIELD*    CLOUDY    35  31  85 S6        30.27S FOG     WCI  30
$$

ILZ028>032-037-038-041>044-048-051>054-059>061-201700-
CENTRAL ILLINOIS

CITY           SKY/WX    TMP DP  RH WIND       PRES   REMARKS
PONTIAC        CLOUDY    32  29  87 S5        30.31R WCI  27
BLOOMINGTON    PTSUNNY   30  28  92 S6        30.29R WCI  24
DECATUR        CLOUDY    32  28  85 SE6       30.30R WCI  26
PEORIA         CLOUDY    32  26  78 SE5       30.28R HAZE    WCI  27
LACON*         CLOUDY    30  26  84 SE5       30.28R FOG     WCI  25
LINCOLN*       CLOUDY    33  29  87 SE7       30.30S WCI  27
SPRINGFIELD    CLOUDY    35  27  72 S6        30.29S WCI  30
TAYLORVILLE    CLOUDY    32  28  86 S7        30.30R WCI  26
$$

ILZ033-039-045-046-055>057-062-063-201700-
EAST-CENTRAL ILLINOIS

CITY           SKY/WX    TMP DP  RH WIND       PRES   REMARKS
CHAMPAIGN      CLOUDY    31  27  85 S9        30.31R WCI  23
DANVILLE*      CLOUDY    32  28  83 SE5       30.28S WCI  27
RANTOUL*       CLOUDY    33  29  86 S7        30.30S WCI  26
MATTOON        CLOUDY    31  26  82 SE6       30.30R WCI  25
PARIS*         CLOUDY    32  28  86 S3        30.32S
$$

ILZ079-100>102-201700-
SOUTHWEST ILLINOIS

CITY           SKY/WX    TMP DP  RH WIND       PRES   REMARKS
ALTON          CLOUDY    36  28  75 S9        30.30R WCI  29
BELLEVILLE     CLOUDY    35  31  84 SE5       30.30R WCI  31
CAHOKIA*       CLOUDY    37  31  78 S3        30.30R
SPARTA*        CLOUDY    34  29  82 SE3       30.31S
$$

ILZ064>066-069>071-074>076-080>082-084>086-088>090-092>094-201700-
SOUTH-CENTRAL ILLINOIS

CITY           SKY/WX    TMP DP  RH WIND       PRES   REMARKS
CARBONDALE     CLOUDY    36  28  73 SE5       30.31S WCI  32
CAIRO*         CLOUDY    39  31  72 E3        30.31S
EFFINGHAM*     CLOUDY    33  26  76 SE5       30.33R WCI  28
MARION         CLOUDY    36  30  80 SE6       30.32R WCI  31
MT. VERNON     CLOUDY    34  27  75 E5        30.32S WCI  30
CENTRALIA*     CLOUDY    33  28  81 SE3       30.31S
SALEM*         CLOUDY    35  29  81 SE5       30.32R HAZE    WCI  30
METROPOLIS*    CLOUDY    36  30  78 NE3       30.29F
$$

ILZ067-068-072-073-078-083-087-091-201700-
SOUTHEAST ILLINOIS

CITY           SKY/WX    TMP DP  RH WIND       PRES   REMARKS
LAWRENCEVILLE  CLOUDY    32  27  81 CALM      30.34R
FLORA*         SUNNY     32  28  84 SE5       30.33S WCI  27
FAIRFIELD*     CLOUDY    33  28  82 CALM      30.32S
HARRISBURG*    CLOUDY    34  29  81 CALM      30.33S
ROBINSON*      CLOUDY    32  29  88 CALM      30.35R
CARMI*         CLOUDY    35  30  81 CALM      30.33R
$$

ABBREVIATIONS USED IN REMARKS
   TC - TEMPERATURE IN CELSIUS
  WCI - WIND CHILL INDEX
   HX - HEAT INDEX
  VSB - VISIBILITY
$$




USA.gov is the U.S. government's official web portal to all federal, state and local government web resources and services.